TimeEST,TemperatureF,Dew PointF,Humidity,Sea Level PressureIn,VisibilityMPH,Wind Direction,Wind SpeedMPH,Gust SpeedMPH,PrecipitationIn,Events,Conditions,WindDirDegrees,DateUTC
12:54 AM,43.0,42.1,97,29.83,2.0,NW,4.6,-,N/A,,Overcast,320,2013-02-24 05:54:00
1:54 AM,43.0,41.0,93,29.84,2.0,NNW,5.8,-,N/A,,Overcast,330,2013-02-24 06:54:00
2:32 AM,42.8,42.8,100,29.81,1.2,North,4.6,-,N/A,,Overcast,350,2013-02-24 07:32:00
2:54 AM,42.1,41.0,96,29.83,0.8,NNW,5.8,-,N/A,,Mist,340,2013-02-24 07:54:00
3:31 AM,42.8,41.0,93,29.81,1.0,NNW,8.1,-,N/A,,Mist,330,2013-02-24 08:31:00
3:42 AM,42.8,41.0,93,29.80,0.8,NNW,5.8,-,N/A,,Mist,340,2013-02-24 08:42:00
3:54 AM,42.1,41.0,96,29.83,1.2,NNW,4.6,-,N/A,,Overcast,340,2013-02-24 08:54:00
3:57 AM,42.8,41.0,93,29.81,2.0,NNW,3.5,-,N/A,,Overcast,330,2013-02-24 08:57:00
4:27 AM,42.8,39.2,87,29.82,1.8,NW,8.1,-,N/A,,Overcast,310,2013-02-24 09:27:00
4:54 AM,42.1,41.0,96,29.83,2.0,NNW,6.9,-,N/A,,Overcast,330,2013-02-24 09:54:00
5:54 AM,42.1,41.0,96,29.86,2.5,NW,4.6,-,N/A,,Overcast,310,2013-02-24 10:54:00
6:09 AM,42.8,41.0,93,29.84,4.0,NNW,8.1,-,N/A,,Overcast,340,2013-02-24 11:09:00
6:54 AM,41.0,39.9,96,29.89,6.0,NW,6.9,-,0.00,Rain,Light Rain,320,2013-02-24 11:54:00
7:54 AM,42.1,41.0,96,29.88,5.0,North,4.6,-,0.01,,Overcast,360,2013-02-24 12:54:00
8:25 AM,42.8,41.0,93,29.88,9.0,NNW,6.9,-,N/A,,Overcast,330,2013-02-24 13:25:00
8:54 AM,44.1,41.0,89,29.91,8.0,NNW,6.9,-,N/A,,Mostly Cloudy,340,2013-02-24 13:54:00
9:54 AM,45.0,41.0,86,29.93,10.0,NW,3.5,-,N/A,,Mostly Cloudy,320,2013-02-24 14:54:00
10:22 AM,48.2,42.8,82,29.91,10.0,Calm,Calm,-,N/A,,Mostly Cloudy,0,2013-02-24 15:22:00
10:54 AM,50.0,41.0,71,29.93,10.0,Calm,Calm,-,N/A,,Mostly Cloudy,0,2013-02-24 15:54:00
11:54 AM,51.1,39.9,66,29.91,10.0,Variable,3.5,-,N/A,,Mostly Cloudy,0,2013-02-24 16:54:00
12:54 PM,53.1,39.9,61,29.90,10.0,West,8.1,-,N/A,,Mostly Cloudy,260,2013-02-24 17:54:00
1:54 PM,54.0,37.9,55,29.89,10.0,WNW,9.2,-,N/A,,Mostly Cloudy,300,2013-02-24 18:54:00
2:54 PM,55.9,35.1,45,29.88,10.0,West,10.4,-,N/A,,Scattered Clouds,270,2013-02-24 19:54:00
3:54 PM,55.9,34.0,44,29.88,10.0,WNW,9.2,-,N/A,,Partly Cloudy,290,2013-02-24 20:54:00
4:54 PM,55.9,34.0,44,29.89,10.0,NW,6.9,-,N/A,,Partly Cloudy,320,2013-02-24 21:54:00
5:54 PM,53.1,36.0,52,29.91,10.0,Calm,Calm,-,N/A,,Partly Cloudy,0,2013-02-24 22:54:00
6:54 PM,46.9,36.0,66,29.95,10.0,Calm,Calm,-,N/A,,Partly Cloudy,0,2013-02-24 23:54:00
7:54 PM,48.0,30.0,50,30.00,10.0,NNE,19.6,27.6,N/A,,Clear,30,2013-02-25 00:54:00
8:54 PM,41.0,26.1,55,30.07,10.0,North,20.7,26.5,N/A,,Clear,360,2013-02-25 01:54:00
9:54 PM,37.9,23.0,55,30.11,10.0,North,12.7,-,N/A,,Clear,10,2013-02-25 02:54:00
10:54 PM,36.0,21.9,57,30.12,10.0,North,11.5,-,N/A,,Clear,10,2013-02-25 03:54:00
11:54 PM,35.1,21.0,57,30.13,10.0,North,11.5,-,N/A,,Clear,10,2013-02-25 04:54:00